Precipitable_Water
1.47 1.52 1.44 1.42 1.43 1.42 1.41 1.39 1.35 1.35 1.38 1.38 1.34 1.31 1.27 1.26 1.24 1.19 1.15 1.12 1.15 1.18 1.21 1.22 1.20 1.22 1.25 1.25 1.28 1.32 1.33 1.33 1.31 1.29 1.33 1.39 1.46 1.48 1.47 1.48 1.48 1.57 1.59
1.56 1.43 1.41 1.42 1.42 1.42 1.42 1.42 1.40 1.37 1.37 1.37 1.36 1.33 1.31 1.28 1.23 1.23 1.19 1.16 1.17 1.21 1.31 1.22 1.21 1.22 1.23 1.22 1.22 1.23 1.26 1.25 1.25 1.26 1.35 1.44 1.54 1.62 1.54 1.44 1.50 1.54 1.56
1.36 1.35 1.36 1.39 1.41 1.43 1.44 1.45 1.45 1.45 1.41 1.38 1.36 1.33 1.31 1.28 1.24 1.21 1.18 1.18 1.26 1.23 1.31 1.32 1.24 1.25 1.26 1.24 1.19 1.18 1.18 1.17 1.23 1.31 1.38 1.44 1.66 1.77 1.59 1.48 1.50 1.53 1.57
1.31 1.33 1.32 1.33 1.34 1.36 1.37 1.40 1.44 1.48 1.48 1.44 1.40 1.37 1.33 1.30 1.27 1.22 1.20 1.18 1.18 1.23 1.21 1.21 1.26 1.28 1.28 1.25 1.19 1.15 1.15 1.17 1.24 1.31 1.38 1.54 1.73 1.81 1.62 1.48 1.52 1.55 1.59
1.23 1.26 1.26 1.26 1.25 1.25 1.28 1.32 1.36 1.39 1.44 1.45 1.44 1.41 1.38 1.35 1.33 1.28 1.22 1.21 1.21 1.21 1.25 1.22 1.33 1.40 1.31 1.27 1.22 1.19 1.19 1.20 1.26 1.29 1.39 1.60 1.82 1.80 1.60 1.52 1.51 1.55 1.62
1.14 1.16 1.12 1.11 1.10 1.12 1.15 1.17 1.25 1.32 1.35 1.37 1.41 1.42 1.42 1.39 1.35 1.31 1.28 1.25 1.21 1.24 1.28 1.28 1.26 1.23 1.34 1.28 1.24 1.22 1.22 1.23 1.26 1.27 1.38 1.53 1.62 1.63 1.57 1.51 1.53 1.53 1.59
1.05 1.03 0.99 1.00 1.02 1.08 1.12 1.12 1.12 1.17 1.28 1.32 1.33 1.34 1.36 1.38 1.36 1.32 1.29 1.28 1.25 1.23 1.24 1.30 1.28 1.22 1.20 1.24 1.25 1.24 1.23 1.24 1.24 1.28 1.36 1.51 1.53 1.61 1.59 1.50 1.51 1.54 1.54
0.95 0.91 0.87 0.86 0.88 0.90 0.96 0.98 0.99 0.99 1.08 1.13 1.18 1.21 1.27 1.29 1.31 1.30 1.27 1.27 1.29 1.32 1.33 1.29 1.29 1.23 1.18 1.17 1.21 1.23 1.24 1.25 1.24 1.29 1.38 1.43 1.40 1.52 1.57 1.49 1.52 1.51 1.48
0.92 0.85 0.81 0.81 0.82 0.77 0.65 0.59 0.58 0.58 0.63 0.71 0.87 0.98 1.04 1.18 1.23 1.31 1.33 1.31 1.29 1.30 1.29 1.28 1.26 1.22 1.17 1.14 1.14 1.16 1.19 1.22 1.21 1.23 1.31 1.53 1.37 1.40 1.46 1.42 1.50 1.51 1.46
0.84 0.76 0.71 0.71 0.67 0.59 0.57 0.48 0.48 0.44 0.44 0.46 0.49 0.51 0.54 0.75 0.86 1.03 1.25 1.30 1.31 1.27 1.22 1.22 1.24 1.24 1.23 1.18 1.12 1.11 1.12 1.15 1.16 1.17 1.22 1.40 1.41 1.37 1.40 1.33 1.41 1.48 1.48
0.74 0.69 0.66 0.60 0.56 0.52 0.52 0.51 0.52 0.51 0.53 0.53 0.52 0.51 0.52 0.55 0.55 0.59 0.57 0.65 0.80 1.03 1.16 1.17 1.11 1.09 1.14 1.17 1.14 1.09 1.09 1.12 1.13 1.14 1.15 1.26 1.38 1.55 1.42 1.34 1.34 1.43 1.47
0.62 0.57 0.57 0.55 0.49 0.51 0.50 0.53 0.55 0.56 0.55 0.57 0.56 0.52 0.52 0.52 0.56 0.51 0.50 0.44 0.53 0.58 0.71 0.93 1.18 1.25 1.16 1.17 1.17 1.14 1.22 1.28 1.25 1.20 1.14 1.23 1.42 1.34 1.47 1.41 1.35 1.37 1.41
0.57 0.53 0.53 0.51 0.48 0.49 0.50 0.52 0.54 0.58 0.55 0.57 0.56 0.54 0.51 0.52 0.52 0.50 0.46 0.47 0.44 0.43 0.46 0.52 0.59 1.00 1.24 1.29 1.33 1.31 1.32 1.31 1.47 1.33 1.13 1.36 1.41 1.36 1.36 1.36 1.35 1.39 1.37
0.56 0.51 0.51 0.51 0.48 0.48 0.52 0.52 0.55 0.55 0.57 0.55 0.58 0.58 0.53 0.51 0.50 0.47 0.48 0.46 0.47 0.48 0.46 0.46 0.45 0.47 0.62 0.93 1.13 1.18 1.28 1.33 1.34 1.37 1.33 1.26 1.30 1.35 1.34 1.30 1.32 1.37 1.39
0.52 0.51 0.51 0.51 0.49 0.49 0.53 0.54 0.55 0.56 0.54 0.58 0.58 0.59 0.56 0.53 0.51 0.48 0.48 0.51 0.50 0.53 0.51 0.49 0.48 0.46 0.43 0.43 0.62 0.96 1.07 1.14 1.21 1.28 1.34 1.35 1.33 1.33 1.28 1.21 1.28 1.30 1.35
0.52 0.50 0.51 0.49 0.49 0.51 0.51 0.53 0.55 0.56 0.56 0.57 0.56 0.56 0.57 0.55 0.53 0.51 0.50 0.50 0.53 0.55 0.53 0.52 0.52 0.51 0.51 0.51 0.45 0.44 0.63 0.95 1.09 1.26 1.30 1.39 1.36 1.32 1.30 1.24 1.20 1.21 1.32
0.51 0.50 0.47 0.47 0.50 0.50 0.52 0.53 0.54 0.55 0.54 0.53 0.54 0.55 0.55 0.54 0.53 0.52 0.52 0.52 0.54 0.53 0.54 0.56 0.52 0.51 0.49 0.50 0.50 0.53 0.52 0.52 0.69 0.96 1.13 1.25 1.33 1.33 1.35 1.31 1.28 1.24 1.20
0.51 0.49 0.48 0.50 0.50 0.50 0.52 0.53 0.53 0.53 0.52 0.51 0.50 0.52 0.51 0.50 0.51 0.50 0.50 0.52 0.54 0.53 0.55 0.55 0.54 0.49 0.48 0.47 0.45 0.45 0.49 0.54 0.58 0.60 0.71 0.98 1.15 1.24 1.26 1.33 1.38 1.36 1.29
0.53 0.51 0.50 0.51 0.48 0.48 0.50 0.50 0.53 0.53 0.51 0.49 0.50 0.50 0.47 0.49 0.48 0.48 0.49 0.53 0.52 0.51 0.52 0.53 0.51 0.50 0.46 0.46 0.47 0.48 0.48 0.46 0.48 0.54 0.60 0.73 0.79 0.81 1.06 1.21 1.34 1.43 1.51
0.54 0.52 0.50 0.51 0.48 0.48 0.48 0.49 0.50 0.51 0.48 0.49 0.49 0.48 0.49 0.49 0.48 0.48 0.48 0.49 0.50 0.48 0.48 0.49 0.49 0.49 0.48 0.47 0.46 0.44 0.47 0.49 0.48 0.47 0.51 0.56 0.64 0.87 0.95 1.06 1.22 1.34 1.44
0.57 0.52 0.48 0.49 0.47 0.46 0.45 0.43 0.44 0.43 0.45 0.47 0.48 0.48 0.50 0.48 0.48 0.47 0.47 0.47 0.48 0.45 0.45 0.48 0.47 0.45 0.44 0.48 0.43 0.39 0.39 0.45 0.46 0.52 0.61 0.64 0.67 0.80 0.83 0.86 0.99 1.18 1.32
0.55 0.54 0.51 0.49 0.48 0.47 0.45 0.45 0.45 0.45 0.46 0.48 0.51 0.48 0.51 0.48 0.47 0.46 0.46 0.46 0.46 0.43 0.43 0.44 0.45 0.43 0.44 0.49 0.42 0.40 0.31 0.32 0.45 0.51 0.62 0.71 0.83 0.92 0.94 0.99 0.97 1.04 1.21
0.53 0.54 0.51 0.49 0.49 0.49 0.47 0.48 0.47 0.48 0.48 0.49 0.45 0.48 0.49 0.50 0.49 0.48 0.48 0.48 0.48 0.46 0.43 0.45 0.46 0.45 0.40 0.45 0.51 0.46 0.35 0.31 0.38 0.45 0.48 0.61 0.71 0.81 0.85 1.07 1.15 1.06 1.08
0.54 0.55 0.52 0.51 0.49 0.49 0.49 0.48 0.46 0.45 0.43 0.46 0.48 0.51 0.51 0.53 0.51 0.51 0.50 0.50 0.49 0.49 0.46 0.45 0.46 0.45 0.45 0.39 0.46 0.51 0.53 0.51 0.40 0.32 0.45 0.51 0.58 0.63 0.76 0.86 0.96 1.08 1.18
0.57 0.55 0.53 0.52 0.51 0.52 0.51 0.50 0.49 0.47 0.48 0.49 0.49 0.49 0.51 0.51 0.53 0.53 0.54 0.52 0.51 0.48 0.47 0.46 0.45 0.45 0.46 0.44 0.43 0.44 0.47 0.49 0.50 0.44 0.34 0.41 0.51 0.58 0.62 0.67 0.81 0.94 1.02
0.57 0.56 0.54 0.51 0.51 0.51 0.51 0.50 0.47 0.46 0.46 0.46 0.47 0.50 0.52 0.52 0.54 0.54 0.54 0.53 0.51 0.49 0.49 0.49 0.49 0.47 0.46 0.46 0.46 0.45 0.45 0.43 0.43 0.44 0.40 0.41 0.42 0.48 0.60 0.64 0.74 0.79 0.90
Wind_Speed
6 7 7 7 8 9 9 9 8 8 7 6 6 6 6 6 6 7 7 8 8 8 8 8 8 7 7 7 7 8 8 9 10 12 12 12 12 12 12 13 13 12 13
6 7 7 8 9 9 10 9 8 8 7 7 7 6 6 6 7 7 8 8 8 9 9 9 8 8 8 8 9 9 9 10 11 12 12 12 12 11 12 12 12 11 11
6 7 8 9 10 10 11 10 9 9 8 8 8 7 7 8 8 8 9 9 9 10 10 10 10 10 10 10 10 10 11 11 12 12 13 12 11 10 11 12 11 11 11
7 8 9 10 11 11 11 10 9 9 10 9 9 9 9 9 10 10 10 10 11 11 11 11 11 11 11 11 11 11 12 12 12 13 12 12 11 10 12 11 11 11 10
8 9 10 11 11 11 11 10 10 10 10 10 10 10 11 11 11 12 12 12 13 13 13 13 13 12 12 12 12 13 13 13 13 13 13 12 10 10 11 11 10 9 8
8 9 10 11 12 12 11 11 11 11 11 11 11 12 12 13 13 14 14 15 15 15 14 14 14 14 13 13 13 13 13 13 13 13 12 12 12 12 11 10 9 9 8
9 10 11 12 12 13 12 12 12 12 12 12 13 13 14 15 15 16 16 17 17 16 16 15 15 15 14 14 14 14 14 14 14 14 14 12 12 12 11 11 10 9 9
11 11 12 13 13 13 13 12 12 12 12 13 14 15 15 16 16 17 17 18 17 17 16 16 16 16 15 15 15 15 15 15 15 15 15 14 13 13 12 12 11 10 9
12 12 13 13 13 13 13 13 13 13 13 14 14 15 16 16 17 17 17 17 17 16 16 16 16 16 16 16 16 16 16 16 16 16 16 15 13 13 13 13 12 11 10
12 13 13 14 14 14 14 13 13 13 14 14 15 16 16 16 16 17 16 15 15 16 16 17 17 17 18 18 18 18 18 18 18 18 17 16 15 15 14 14 14 14 12
13 13 13 14 14 13 12 12 12 13 13 14 15 16 15 16 16 16 15 15 15 15 16 16 17 18 18 18 19 19 19 19 19 19 18 17 17 17 16 16 16 15 15
14 14 14 13 13 12 11 12 12 13 14 14 14 15 14 14 13 14 14 14 14 15 16 16 17 17 17 18 18 18 18 19 20 19 20 19 19 19 18 18 18 18 18
14 14 14 13 12 12 12 12 13 13 14 14 14 13 13 13 13 13 13 14 15 15 15 16 17 17 17 18 18 19 19 19 18 18 19 21 21 21 20 21 21 21 20
15 15 14 13 13 13 14 14 14 14 14 13 13 13 13 13 14 14 14 15 16 16 17 18 19 20 21 21 22 21 21 21 21 21 21 20 21 23 24 23 23 23 23
16 15 15 14 14 14 14 14 14 14 14 14 14 14 14 15 14 15 16 17 18 19 19 21 22 23 24 25 25 25 25 25 26 26 26 24 24 24 26 27 26 26 26
17 16 16 15 15 15 15 15 14 15 15 15 15 16 16 16 16 17 17 18 19 21 22 23 24 25 25 26 27 27 29 29 28 28 28 29 28 28 28 28 29 29 29
18 17 17 16 16 16 16 16 16 16 16 16 17 17 17 18 18 19 19 20 21 24 24 25 25 26 27 27 28 28 28 29 30 31 31 31 31 31 31 31 31 32 32
19 19 18 18 17 16 16 16 17 17 17 18 18 18 19 19 20 20 21 22 24 25 25 26 26 28 28 29 29 30 30 30 30 31 33 34 35 35 35 35 34 34 34
20 20 19 19 18 18 17 17 18 18 18 19 19 19 20 20 21 22 22 24 25 26 26 27 28 29 30 31 31 31 32 32 32 32 33 34 36 38 38 38 38 38 37
22 21 21 20 20 20 19 19 19 19 20 20 20 21 21 22 23 23 24 25 26 27 28 29 30 30 31 32 33 34 33 33 33 33 34 35 36 37 38 40 42 41 40
22 23 22 21 21 21 21 21 22 22 22 22 22 22 22 23 24 25 25 26 27 28 29 30 31 31 31 32 33 34 33 33 32 32 33 34 34 35 38 41 44 44 44
22 23 23 22 22 22 22 23 23 24 24 23 23 24 24 25 25 26 27 28 29 30 31 32 32 32 32 32 32 34 31 31 28 30 31 30 33 35 37 39 41 42 43
22 22 23 23 23 23 23 24 24 25 25 24 26 25 26 27 27 28 29 30 31 32 32 33 33 33 33 32 32 31 31 30 35 31 33 33 33 33 33 35 36 38 41
22 22 23 24 24 24 24 24 25 25 26 26 26 27 28 29 30 31 31 32 33 34 34 34 34 34 34 34 33 31 34 35 33 35 31 35 35 35 34 34 35 36 38
22 23 24 24 24 25 25 25 26 26 26 27 28 29 30 31 32 33 34 35 35 35 36 36 36 36 36 36 35 35 35 35 36 36 38 34 36 36 35 35 34 36 37
22 23 23 24 24 25 25 25 26 26 27 28 30 30 32 33 34 35 36 37 37 38 38 38 38 38 37 37 37 36 36 36 36 36 38 38 37 36 37 37 35 34 35
Wind_Direction
323 321 321 319 321 323 322 320 320 321 323 320 318 316 317 323 331 337 344 350 353 355 354 351 347 343 338 333 325 313 307 302 300 301 301 301 301 305 307 307 304 303 298
306 320 320 319 320 320 318 316 313 313 314 313 311 309 310 313 317 323 328 333 338 342 341 339 337 334 331 328 324 320 311 305 303 303 302 299 299 304 310 312 311 307 303
299 313 315 319 320 319 317 310 305 303 304 304 303 301 301 303 306 310 314 318 323 326 330 330 327 324 322 321 318 316 312 309 305 303 301 298 292 299 314 314 311 308 304
292 306 314 316 318 318 318 313 304 299 297 296 295 295 296 298 300 303 305 307 311 315 318 320 319 318 317 315 314 313 312 310 309 305 301 298 295 292 311 314 312 310 305
292 303 311 316 316 317 313 310 305 300 297 295 292 292 293 295 297 299 300 302 304 306 308 310 311 311 311 311 311 310 309 310 310 308 302 298 294 295 307 310 312 315 307
288 298 308 313 314 314 313 309 304 299 296 294 291 290 291 293 294 296 297 299 300 300 301 303 306 307 307 307 308 308 308 308 309 306 303 301 295 294 300 301 307 312 306
282 295 304 308 311 312 310 308 304 300 296 293 292 291 290 291 292 293 294 296 296 295 296 298 301 303 304 304 305 306 306 306 306 304 302 299 294 293 296 294 296 300 304
280 291 300 306 308 310 310 309 306 304 300 297 294 293 291 291 291 292 293 294 293 292 292 294 296 298 300 301 302 303 303 304 303 301 301 300 293 289 291 288 288 290 294
280 290 298 302 305 307 308 308 307 305 303 301 298 296 294 292 292 292 293 292 292 292 292 292 294 295 297 298 299 300 300 300 300 299 298 299 291 289 288 285 281 282 285
278 289 297 301 304 305 306 308 306 307 307 304 302 300 297 294 293 295 293 292 293 292 292 292 293 293 294 295 295 296 296 296 296 295 293 293 287 287 286 283 278 275 274
276 285 293 298 302 303 305 309 308 310 310 311 310 305 301 297 295 294 293 294 295 294 295 295 295 294 294 295 295 295 292 294 293 290 290 288 284 282 283 282 278 272 270
271 281 288 293 296 299 302 307 309 311 312 312 313 311 306 302 298 298 297 296 296 296 297 297 298 298 295 297 297 296 293 293 294 292 284 284 280 278 278 278 278 271 266
267 277 282 286 289 292 295 302 306 308 311 312 315 316 312 306 303 300 298 298 300 298 299 299 300 297 299 298 298 299 293 291 292 295 291 282 279 276 275 276 275 270 266
264 270 275 281 283 288 291 294 299 302 306 309 311 314 313 308 304 300 299 299 298 298 297 297 297 296 295 294 294 294 294 291 288 292 294 289 281 278 275 274 273 268 265
261 266 270 273 278 283 287 291 294 297 300 302 305 308 310 307 303 300 299 299 299 298 298 297 296 294 293 291 288 288 288 289 287 286 285 283 283 282 278 274 271 267 263
259 261 264 268 273 279 283 287 290 294 296 297 299 303 305 305 301 299 299 299 299 299 298 296 295 295 293 292 289 286 284 283 284 284 283 281 279 279 281 276 271 266 262
256 259 262 265 271 276 280 284 287 291 293 294 296 298 301 302 300 298 297 298 299 300 298 296 296 295 294 293 291 288 286 284 281 280 280 279 279 277 278 279 272 267 261
253 257 260 264 269 273 277 281 285 289 290 292 294 295 299 299 299 299 298 298 300 300 299 297 296 296 295 294 292 289 286 285 283 281 278 276 276 277 277 275 273 267 261
253 255 257 260 265 269 274 278 282 287 290 290 292 295 298 298 299 298 297 299 301 300 299 299 298 297 296 294 292 290 287 285 283 282 281 279 277 276 273 274 272 266 260
252 253 256 258 262 266 272 277 281 285 290 290 291 294 296 297 298 299 298 299 300 300 299 299 299 298 296 295 293 291 289 286 283 281 281 280 278 276 274 273 271 267 259
252 252 254 256 261 266 271 277 282 286 287 288 290 293 294 297 298 298 299 300 301 300 300 299 299 298 297 297 295 294 290 287 283 282 283 281 281 278 276 274 272 266 258
251 251 252 255 260 266 271 276 280 283 285 287 289 292 294 297 297 298 299 299 300 301 300 299 299 298 296 297 295 294 292 288 285 287 286 289 283 281 279 279 273 263 256
251 251 253 257 261 266 271 275 280 282 284 285 290 291 294 296 298 298 299 299 300 301 300 299 299 299 296 296 296 293 291 287 291 285 287 285 287 287 286 283 276 263 258
253 254 256 259 262 267 272 276 279 282 284 286 288 291 294 296 297 298 298 299 299 299 299 298 298 297 296 295 294 291 289 288 287 288 283 286 285 284 285 284 273 268 263
255 255 257 259 264 268 272 276 279 281 284 286 289 292 294 296 297 297 298 299 299 298 297 297 296 295 294 293 292 291 289 286 285 284 286 285 285 283 284 283 274 270 264
256 258 258 260 265 270 274 277 280 282 285 287 290 292 294 295 296 297 299 298 298 297 296 295 294 293 292 291 290 289 288 287 286 285 284 285 284 283 283 281 272 271 266